Probability
0 0 0 0 0 0 0 0 0 0 0 0 0 0 0 0 0 0 0 0 0 0 0 0 0 0 0 0 0 0 0 0 0 0 0 0 0 0
0 0 0 0 0 0 0 0 0 0 0 0 0 0 0 0 0 0 0 0 0 0 0 0 0 0 0 0 0 0 0 0 0 0 0 0 0 0
0 0 0 0 0 0 0 0 0 0 0 0 0 0 0 0 0 0 0 0 0 0 0 0 0 0 0 0 0 0 0 0 0 0 0 0 0 0
0 0 0 0 0 0 0 0 0 0 0 0 0 0 0 0 0 0 0 0 0 0 0 0 0 0 0 0 0 0 0 0 0 0 0 0 0 0
0 0 0 0 0 0 0 0 0 0 0 0 0 0 0 0 0 0 0 0 0 0 0 0 0 0 0 0 0 0 0 0 0 0 0 0 0 0
0 0 0 0 0 0 0 0 0 0 0 0 0 0 0 0 0 0 0 0 0 0 0 0 0 0 0 0 0 0 0 0 0 0 0 0 0 0
0 0 0 0 0 0 0 0 0 0 0 0 0 0 0 0 0 0 0 0 0 0 0 0 0 0 0 0 0 0 0 0 0 0 0 0 0 0
0 0 0 0 0 0 0 0 0 0 0 0 0 0 0 0 0 0 0 0 0 0 0 0 0 0 0 0 0 0 0 0 0 0 0 0 0 0
0 0 0 0 0 0 0 0 0 0 0 0 0 0 0 0 0 0 0 0 0 0 0 0 0 0 0 0 0 0 0 0 0 0 0 0 0 0
0 0 0 0 0 0 0 0 0 0 0 0 0 0 0 0 0 0 0 0 0 0 0 0 0 0 0 0 0 0 0 0 0 0 0 0 0 0
0 0 0 0 0 0 0 0 0 0 0 0 0 0 0 0 0 0 0 0 0 0 0 0 0 0 0 0 0 0 0 0 0 0 0 0 0 0
0 0 0 0 0 0 0 0 0 0 0 0 0 0 0 0 0 0 0 0 0 0 0 0 0 0 0 0 0 0 0 0 0 0 0 0 0 0
0 0 0 0 0 0 0 0 0 0 0 0 0 0 0 0 0 0 0 0 0 0 0 0 0 0 0 0 0 0 0 0 0 0 0 0 0 0
0 0 0 0 0 0 0 0 0 0 0 0 0 0 0 0 0 0 0 0 0 0 0 0 0 0 0 0 0 0 0 0 0 0 0 0 0 0
0 0 0 0 0 0 0 0 0 0 0 0 0 0 0 0 0 0 0 0 0 0 0 0 0 0 0 0 0 0 0 0 0 0 0 0 0 0
0 0 0 0 0 0 0 0 0 0 0 0 0 0 0 0 0 0 0 0 0 0 0 0 0 0 0 0 0 0 0 0 0 0 0 0 0 0
0 0 0 0 0 0 0 0 0 0 0 0 0 0 0 0 0 0 0 0 0 0 0 0 0 0 0 0 0 0 0 0 0 0 0 0 0 0
0 0 0 0 0 0 0 0 0 0 0 0 0 0 0 0 0 0 0 0 0 0 0 0 0 0 0 0 0 0 0 0 0 0 0 0 0 0
0 0 0 0 0 0 0 0 0 0 0 0 0 0 0 0 0 0 0 0 0 0 0 0 0 0 0 0 0 0 0 0 0 0 0 0 0 0
0 0 0 0 0 0 0 0 0 0 0 0 0 0 0 0 0 0 0 0 0 0 0 0 0 0 0 0 0 0 0 0 0 0 0 0 0 0
0 0 0 0 0 0 0 0 0 0 0 0 0 0 0 0 0 0 0 0 0 0 0 0 0 0 0 0 0 0 0 0 0 0 0 0 0 0
0 0 0 0 0 0 0 0 0 0 0 0 0 0 0 0 0 0 0 0 0 0 0 0 0 0 0 0 0 0 0 0 0 0 0 0 0 0
0 0 0 0 0 0 0 0 0 0 0 0 0 0 0 0 0 0 0 0 0 0 0 0 0 0 0 0 0 0 0 0 0 0 0 0 0 0
Height
5797 5799 5801 5804 5806 5809 5812 5815 5818 5820 5822 5824 5827 5829 5830 5832 5833 5836 5838 5840 5842 5844 5846 5847 5849 5850 5852 5853 5855 5856 5858 5859 5860 5860 5860 5860 5861 5862
5793 5795 5797 5799 5801 5804 5806 5808 5811 5814 5817 5819 5822 5825 5826 5828 5829 5831 5833 5835 5837 5839 5841 5842 5844 5846 5847 5849 5851 5853 5854 5855 5856 5856 5856 5857 5857 5858
5788 5790 5791 5793 5795 5797 5800 5802 5804 5807 5810 5813 5816 5819 5821 5823 5825 5827 5829 5830 5832 5834 5836 5837 5839 5841 5843 5845 5846 5847 5849 5850 5851 5851 5852 5853 5853 5854
5784 5785 5786 5788 5790 5792 5793 5795 5797 5799 5803 5806 5809 5812 5815 5817 5819 5822 5824 5826 5827 5829 5831 5832 5834 5836 5838 5839 5840 5841 5843 5844 5845 5846 5847 5848 5849 5849
5781 5782 5783 5783 5785 5786 5787 5788 5789 5792 5795 5798 5802 5805 5808 5811 5813 5816 5818 5820 5822 5824 5825 5826 5828 5830 5832 5834 5835 5836 5838 5839 5840 5841 5842 5843 5843 5843
5776 5777 5778 5779 5780 5780 5780 5781 5782 5784 5786 5790 5795 5799 5801 5804 5806 5809 5812 5814 5815 5817 5818 5820 5821 5824 5826 5828 5830 5831 5832 5833 5834 5835 5836 5837 5837 5836
5769 5771 5772 5773 5774 5774 5774 5774 5775 5776 5778 5782 5787 5791 5794 5797 5800 5802 5805 5807 5808 5809 5812 5814 5816 5818 5820 5822 5824 5825 5826 5826 5827 5828 5829 5830 5830 5830
5762 5763 5764 5765 5766 5767 5767 5768 5768 5768 5770 5774 5779 5783 5787 5790 5793 5795 5798 5800 5801 5803 5805 5807 5809 5810 5812 5814 5816 5817 5818 5819 5820 5821 5822 5822 5822 5822
5754 5756 5757 5758 5759 5761 5761 5761 5761 5761 5762 5765 5770 5774 5779 5782 5785 5789 5791 5792 5794 5796 5797 5798 5800 5802 5804 5806 5807 5809 5810 5811 5812 5812 5813 5813 5814 5813
5747 5748 5749 5751 5752 5754 5755 5756 5756 5756 5757 5759 5763 5767 5770 5773 5777 5780 5783 5785 5786 5788 5789 5790 5791 5794 5796 5797 5798 5800 5801 5802 5802 5803 5803 5804 5805 5805
5740 5741 5742 5743 5744 5746 5747 5748 5750 5751 5751 5753 5755 5758 5761 5764 5767 5771 5774 5777 5779 5779 5780 5782 5783 5785 5787 5788 5788 5790 5791 5791 5792 5793 5793 5794 5794 5795
5732 5733 5734 5735 5736 5738 5740 5741 5743 5745 5746 5747 5749 5752 5754 5757 5759 5762 5765 5767 5769 5771 5771 5773 5774 5775 5778 5778 5778 5779 5780 5781 5781 5782 5782 5783 5784 5785
5724 5725 5726 5728 5729 5731 5733 5735 5737 5739 5742 5743 5744 5746 5748 5750 5752 5754 5756 5759 5760 5762 5762 5763 5764 5765 5767 5767 5767 5768 5769 5770 5771 5771 5771 5772 5773 5773
5714 5716 5718 5720 5722 5724 5726 5728 5730 5732 5735 5737 5739 5740 5742 5744 5746 5747 5749 5750 5751 5753 5753 5754 5754 5755 5755 5756 5756 5757 5758 5759 5759 5760 5760 5760 5761 5762
5702 5705 5708 5711 5714 5717 5719 5721 5723 5726 5728 5730 5732 5734 5735 5736 5738 5739 5740 5742 5742 5743 5744 5744 5744 5744 5744 5745 5746 5746 5746 5747 5747 5748 5748 5748 5748 5750
5690 5694 5699 5703 5706 5709 5712 5715 5717 5719 5722 5724 5726 5727 5729 5730 5731 5731 5732 5733 5733 5734 5734 5734 5734 5734 5734 5735 5735 5735 5735 5735 5735 5735 5735 5736 5736 5737
5680 5685 5691 5696 5699 5703 5706 5709 5711 5714 5717 5719 5721 5723 5724 5724 5725 5725 5725 5725 5725 5725 5724 5724 5723 5723 5724 5724 5724 5724 5724 5723 5722 5722 5722 5723 5723 5724
5677 5681 5686 5690 5694 5698 5702 5705 5708 5711 5713 5715 5717 5718 5718 5718 5719 5718 5718 5718 5717 5717 5715 5714 5713 5713 5713 5713 5713 5713 5713 5712 5711 5710 5710 5710 5710 5710
5678 5681 5684 5688 5691 5695 5699 5703 5706 5708 5710 5711 5712 5712 5712 5712 5712 5711 5710 5709 5709 5708 5707 5705 5704 5703 5702 5702 5702 5701 5700 5699 5697 5697 5696 5696 5696 5696
5680 5682 5684 5687 5690 5694 5698 5701 5703 5705 5706 5706 5707 5707 5707 5706 5705 5704 5703 5701 5700 5698 5697 5695 5694 5692 5691 5690 5690 5688 5686 5685 5684 5684 5683 5683 5683 5683
5683 5684 5686 5688 5691 5694 5697 5699 5701 5702 5703 5703 5702 5702 5701 5699 5698 5696 5694 5693 5691 5689 5686 5684 5683 5681 5679 5678 5677 5675 5673 5672 5671 5671 5670 5670 5670 5670
5684 5685 5687 5689 5692 5694 5696 5697 5698 5698 5699 5698 5698 5696 5694 5692 5690 5688 5686 5683 5681 5679 5676 5674 5672 5670 5668 5666 5664 5662 5660 5659 5658 5657 5656 5657 5657 5657
5685 5687 5689 5691 5693 5694 5695 5696 5696 5696 5696 5695 5693 5691 5689 5686 5684 5681 5678 5675 5672 5669 5667 5664 5661 5659 5656 5654 5652 5650 5648 5645 5644 5643 5643 5642 5643 5644
Wind_Speed
23 21 19 19 20 20 22 25 25 24 23 22 21 19 18 18 18 19 19 20 21 20 19 19 18 17 16 15 15 16 17 17 17 18 18 18 18 19
21 22 22 22 21 20 21 24 26 27 27 27 25 24 22 21 20 19 19 20 20 20 20 19 19 19 18 18 18 18 18 18 16 15 15 15 16 17
21 22 23 22 19 18 19 22 26 28 30 31 30 28 25 24 24 24 23 22 22 22 22 22 22 22 22 21 21 20 19 19 18 18 17 17 18 19
17 19 21 21 20 18 17 19 24 29 31 32 32 31 28 27 25 25 25 24 24 25 25 24 24 24 23 22 22 21 21 20 20 20 20 20 20 20
16 16 18 20 21 22 22 20 22 28 34 36 35 33 30 28 26 27 26 25 24 25 26 25 25 25 24 24 23 23 23 22 22 22 22 23 23 23
18 19 20 20 21 23 24 25 24 28 34 38 39 36 33 32 31 30 28 26 25 26 27 27 26 25 25 26 26 26 25 24 24 24 25 26 26 26
21 21 21 22 23 23 24 25 25 28 33 38 41 39 37 35 34 32 29 27 27 27 28 28 28 28 28 27 28 28 28 28 27 27 27 28 28 28
23 23 22 22 23 23 23 24 24 27 33 40 43 41 38 36 35 34 30 28 29 30 28 29 29 30 30 30 30 30 31 31 31 31 30 30 30 30
24 24 24 24 24 24 24 24 22 22 28 35 40 41 40 39 39 37 34 32 32 31 30 31 32 33 33 32 33 34 34 35 35 34 34 33 34 33
25 25 25 26 26 26 25 24 22 22 24 31 36 39 38 37 39 39 36 32 32 33 33 33 33 33 33 32 33 34 35 35 36 36 35 35 36 35
25 26 26 26 27 28 27 25 23 22 22 26 31 32 31 30 30 31 33 33 31 32 34 34 35 34 32 31 32 32 34 35 35 35 36 36 35 34
25 25 26 27 27 27 27 26 25 23 22 22 24 24 23 23 24 26 30 32 34 35 35 35 36 35 32 33 34 34 34 35 35 34 33 34 34 34
27 26 26 26 27 27 26 26 26 25 25 24 24 24 24 24 24 25 27 28 30 32 35 36 36 37 35 34 36 36 37 37 36 36 36 36 36 37
33 30 27 26 27 26 24 25 25 25 27 27 28 28 28 29 30 30 30 30 31 33 34 36 37 38 38 38 40 40 40 40 39 40 41 41 41 40
35 34 31 27 26 26 24 24 25 25 26 27 28 28 28 29 30 31 32 32 32 33 34 35 36 36 35 36 38 41 43 44 44 44 45 46 45 44
31 32 31 28 24 24 24 23 24 24 24 24 25 25 25 25 25 27 28 28 28 28 30 32 34 35 36 35 36 37 39 42 44 45 44 43 43 44
24 26 26 25 23 23 23 22 21 21 20 19 19 19 19 20 22 23 25 26 27 28 28 28 30 32 34 35 36 37 39 41 44 45 46 45 45 46
15 18 18 18 19 20 20 20 19 17 16 16 17 18 19 20 22 24 26 27 29 30 30 30 30 31 32 34 36 38 40 43 44 45 47 48 49 49
8 10 12 14 17 19 19 18 17 16 16 17 19 20 22 23 25 26 28 29 30 32 33 33 33 33 33 34 36 39 40 42 44 47 49 49 48 47
5 8 10 12 15 16 16 15 16 16 16 17 17 19 21 23 24 25 26 28 29 31 32 34 34 35 36 37 38 39 41 42 42 42 41 41 43 46
4 6 8 10 11 11 12 12 13 14 15 15 17 19 21 23 24 25 25 26 28 29 30 31 33 34 35 36 38 40 42 43 43 43 42 41 39 40
3 2 3 4 5 6 7 9 11 13 15 17 19 20 22 23 24 25 26 27 28 29 30 32 34 35 36 37 37 38 40 41 43 44 44 44 42 38
9 8 6 5 3 2 2 4 7 9 12 15 17 19 21 23 25 26 28 29 30 31 32 33 34 35 36 37 37 38 38 39 40 41 43 44 43 41
Wind_Direction
246 242 244 248 251 249 244 236 229 228 233 234 232 232 234 235 234 232 230 227 229 232 234 235 236 236 237 240 245 251 255 255 256 259 262 262 260 257
243 242 246 251 252 253 254 248 236 230 233 237 235 234 235 238 238 237 235 231 229 230 231 232 233 234 236 240 243 247 249 250 251 255 259 261 259 258
243 243 244 244 241 243 248 247 238 232 231 237 239 237 235 238 240 240 239 237 235 233 232 232 233 235 238 241 244 247 249 252 255 257 259 261 262 262
246 243 241 241 238 238 243 245 238 230 229 233 236 237 235 236 238 240 239 239 239 238 237 236 237 239 242 244 248 250 251 252 254 256 257 260 263 266
249 246 245 244 242 242 246 251 247 237 231 230 231 234 233 233 235 242 243 242 241 241 242 242 242 243 246 249 251 253 252 251 251 252 254 257 261 265
253 253 253 252 250 250 251 252 254 243 233 228 227 228 230 234 236 241 244 244 242 241 241 243 245 246 248 250 252 252 251 252 252 252 254 255 259 264
257 256 256 257 255 256 254 253 252 244 233 225 224 227 230 233 235 239 243 241 242 243 244 245 247 249 250 251 252 252 253 255 256 255 255 256 261 266
260 258 256 257 256 256 255 254 255 247 238 228 227 227 227 228 232 236 239 240 243 245 247 248 250 253 253 253 253 255 259 260 259 258 256 257 260 264
262 260 257 255 255 254 254 255 257 249 238 229 224 224 226 229 231 234 238 242 246 246 247 249 251 255 257 259 259 260 261 261 259 259 258 260 261 263
262 261 259 256 253 252 253 254 253 247 240 232 228 228 232 235 234 233 235 241 246 247 247 249 252 254 258 260 259 258 258 258 259 261 263 264 262 262
263 262 261 258 254 251 250 250 249 246 243 239 232 231 234 234 235 235 236 239 241 243 245 248 252 254 255 257 257 256 257 258 259 262 263 263 262 262
260 261 261 260 258 256 253 250 248 245 242 238 235 234 234 234 236 237 239 240 241 243 246 248 251 254 255 256 257 256 256 257 258 258 258 258 259 262
259 259 260 261 259 257 257 255 253 248 243 237 236 239 242 243 244 243 241 242 244 245 247 249 250 252 252 253 255 257 257 257 257 257 257 257 259 261
257 256 257 258 257 255 254 252 250 250 248 244 242 242 244 245 247 248 248 247 248 249 249 249 250 252 253 252 254 256 257 256 257 258 259 260 260 262
254 251 251 253 254 251 249 247 246 247 246 245 244 245 246 247 249 251 251 252 254 254 254 253 253 254 255 255 255 257 258 259 260 261 260 260 261 263
248 244 243 245 247 245 243 242 242 242 243 244 242 241 242 244 246 247 248 249 251 254 256 257 257 258 259 260 260 259 260 263 264 264 263 261 262 263
237 233 233 238 240 237 236 237 235 235 237 235 234 236 241 244 248 249 249 251 254 257 261 261 260 260 261 261 260 258 258 258 260 261 262 262 262 264
219 219 224 231 229 226 225 222 219 223 227 232 239 247 254 258 260 259 258 259 260 262 265 266 266 265 264 263 262 261 261 261 262 263 264 265 263 261
197 209 218 218 212 212 212 213 218 229 241 249 254 257 261 264 265 265 264 263 263 264 265 266 267 267 266 267 267 266 267 267 268 268 268 267 265 261
162 176 185 186 191 202 213 222 231 241 251 257 262 265 268 271 272 272 271 270 269 269 269 269 270 270 270 269 269 270 270 270 271 271 271 268 265 261
95 143 161 175 191 208 222 233 242 249 257 263 268 272 276 279 280 279 277 276 275 275 275 275 275 275 275 275 274 273 272 271 271 270 270 268 267 265
55 106 142 174 200 222 239 251 259 263 267 272 277 282 285 286 285 284 282 282 281 281 281 280 279 278 277 277 277 276 274 272 270 269 268 266 266 267
79 94 105 112 126 171 240 266 276 283 288 292 295 295 294 292 290 288 287 286 285 285 284 283 281 280 279 278 278 277 275 274 273 270 267 264 263 262